Tracking 28790 objects as of 18-Apr-2024
HD Live streaming from Space Station
objects crossing your sky now

SL-8 DEB

Track SL-8 DEB now!
10-day predictions


NORAD ID: 25085
Int'l Code: 1991-009CX
Perigee: 1,439.8 km
Apogee: 1,726.4 km
Inclination: 74.1 °
Period: 117.7 minutes
Semi major axis: 7954 km
RCS: 0.0159 m2 (small)
Launch date: February 12, 1991
Source: Commonwealth of Independent States (former USSR) (CIS)
Launch site: PLESETSK MISSILE AND SPACE COMPLEX (PKMTR)

Note: This is SATELLITE DEBRIS
Your satellite tracking list
Your tracking list is empty




NASA's NSSDC Master Catalog

Two Line Element Set (TLE):
1 25085U 91009CX  24106.01853032  .00000342  00000-0  31144-2 0  9998
2 25085  74.1070 129.6261 0180179 184.4798 201.0699 12.23824091313988
Source of the keplerian elements: AFSPC